[Iaude] MPEC C36: 2024 BD6 [a=1.70,e=0.82,i=34.7,H=22.0]
    mpec at marsden.cfa.harvard.edu 
    mpec at marsden.cfa.harvard.edu
       
    Sat Feb  3 04:10:57 EST 2024
    
    
  
M.P.E.C. 2024-C36                              Issued 2024 February 3, 09:09 UT
     The Minor Planet Electronic Circulars contain information on unusual
         minor planets, routine data on comets and natural satellites,
         and occasional editorial announcements.  They are published
    on behalf of Division F of the International Astronomical Union by the
          Minor Planet Center, Smithsonian Astrophysical Observatory,
                          Cambridge, MA 02138, U.S.A.
			  
             Prepared using the Tamkin Foundation Computer Network
                              MPC at CFA.HARVARD.EDU
            URL https://www.minorplanetcenter.net/    ISSN 1523-6714
                                    2024 BD6                                    
Observations:
     K24B06D*1C2024 01 31.31765010 41 06.169+58 27 25.96         21.99GVEC036G96
     K24B06D 1C2024 01 31.32289710 41 04.225+58 27 48.28         21.17GVEC036G96
     K24B06D 1C2024 01 31.32815510 41 02.296+58 28 10.78         20.74GVEC036G96
     K24B06D 1C2024 01 31.33340310 41 00.258+58 28 32.45         22.02GVEC036G96
     K24B06D KC2024 01 31.39959010 40 35.152+58 33 12.17         21.40GVEC036I52
     K24B06D KC2024 01 31.40422710 40 33.377+58 33 31.18         21.01GVEC036I52
     K24B06D KC2024 01 31.40886510 40 31.580+58 33 50.62         21.62GVEC036I52
     K24B06D KC2024 01 31.41350710 40 29.795+58 34 10.06         22.08GVEC036I52
     K24B06D KC2024 02 01.25721310 34 59.39 +59 34 46.0          21.3 GVEC036H21
     K24B06D KC2024 02 01.26001210 34 58.20 +59 34 58.4          21.3 GVEC036H21
     K24B06D KC2024 02 01.26616710 34 55.45 +59 35 25.7          21.5 GVEC036H21
     K24B06D KC2024 02 01.26924310 34 54.10 +59 35 39.6          21.7 GVEC036H21
     K24B06D KC2024 02 03.22143510 18 33.50 +62 06 25.7          21.4 GVEC036H21
     K24B06D KC2024 02 03.22702910 18 30.07 +62 06 53.2          21.5 GVEC036H21
     K24B06D KC2024 02 03.23262610 18 26.64 +62 07 20.7          21.4 GVEC036H21
Observer details:
G96 Mt. Lemmon Survey.  Observer J. K. Hogan.  Measurers T. Beuden, V. F.
    Carvajal, D. Fay, J. B. Fazekas, D. C. Fuls, A. R. Gibbs, A. D. Grauer, H.
    Groeller, J. K. Hogan, R. A. Kowalski, S. M. Larson, G. J. Leonard, D.
    Rankin, R. L. Seaman, F. C. Shelly, K. W. Wierzchos.  1.5-m reflector +
    10K CCD.
H21 Astronomical Research Observatory, Westfield.  Observer R. Holmes.
    Measurers T. Linder, R. Holmes, L. Horn.  0.81-m f/4.0 astrograph + CCD,
    0.76-m f/3.0 astrograph + CCD.
I52 Steward Observatory, Mt. Lemmon Station.  Observer R. A. Kowalski.
    Measurers E. C. Beshore, D. Fay, J. B. Fazekas, D. C. Fuls, A. R. Gibbs,
    A. D. Grauer, H. Groeller, J. K. Hogan, R. A. Kowalski, S. M. Larson, G.
    J. Leonard, D. Rankin, R. L. Seaman, F. C. Shelly, K. W. Wierzchos.  1.0-m
    prime focus + CCD.
Orbital elements:
2024 BD6                                                 Earth MOID = 0.0884 AU
Epoch 2023 Sept. 13.0 TT = JDT 2460200.5                Bell                    
M 270.60302              (2000.0)            P               Q                  
n   0.44300078     Peri.  291.99245     -0.07044067     +0.95352046             
a   1.7042490      Node   329.06565     -0.56600450     -0.28005564             
e   0.8204453      Incl.   34.74583     -0.82138726     +0.11120958             
P   2.22           H   22.08          G   0.15           U   9                  
Residuals in seconds of arc
240131 G96  0.2-  0.3+    240131 I52  0.1+  0.3-    240201 H21  0.2-  0.1-
240131 G96  0.0   0.4+    240131 I52  0.1-  0.3-    240201 H21  0.2-  0.1+
240131 G96  0.4+  0.6+    240131 I52  0.1-  0.4-    240203 H21  0.0   0.1-
240131 G96  0.1-  0.0     240201 H21  0.1+  0.0     240203 H21  0.0   0.0
240131 I52  0.1+  0.2+    240201 H21  0.3+  0.0     240203 H21  0.0   0.1+
Ephemeris:
2024 BD6                 a,e,i = 1.70, 0.82, 35                  q = 0.3060
Date    TT    R. A. (2000) Decl.     Delta      r    Elong.  Phase     V
2024 01 04    11 15 53.4 +41 58 02   0.8484  1.6127   123.2    30.7    24.1
...
2024 01 19    11 14 27.7 +48 08 04   0.5709  1.4328   132.5    30.4    23.0
...
2024 01 27    10 59 58.1 +53 59 39   0.4356  1.3290   135.0    31.6    22.2
...
2024 02 02    10 29 25.0 +60 30 15   0.3429  1.2470   133.7    34.9    21.7
2024 02 03    10 20 41.6 +61 48 26   0.3284  1.2330   133.0    35.8    21.6
2024 02 04    10 10 14.1 +63 10 04   0.3143  1.2189   132.1    36.9    21.5
...
2024 02 10    07 56 32.7 +70 55 44   0.2395  1.1318   121.9    47.7    21.0
...
2024 02 18    02 59 22.0 +55 19 47   0.1862  1.0091    91.1    78.3    21.2
...
2024 03 04    01 03 02.5 +01 33 44   0.2966  0.7561    31.9   136.2    25.2
M. P. C. Staff               (C) Copyright 2024 MPC           M.P.E.C. 2024-C36
    
    
More information about the Iaude
mailing list